Dario Filipe — CUHY7 — position and weather

sailwx.info

Track history (hours):
 
Tides and Currents Weather Stations Pressure Air Temp Water Temp Dewpoint Dewpoint Depression Visibility Wind Speed Wind Dir Waves Ship Positions

Dario Filipe

Last reported at 2015-Jul-31 00:26 UTC. Time now 2015-Sep-01 03:59 UTC.
Position N 38°30' W 009°55'.
Warning: this ship's position is 32 days out of date.

Length 24 m.

Type: Fishing. MMSI: 263414640.

Date/timePositionNaut miles runAvg speedWind from/ knotsBaromVisibWave heightAir tempDewpointWater temp
2015-Jul-31 00:26N 38°30' W 009°55'8 9.0
2015-Jul-30 23:34N 38°37' W 009°51'9 8.8
2015-Jul-30 22:33N 38°45' W 009°46'9 8.7
2015-Jul-30 21:33N 38°53' W 009°42'9 9.2
2015-Jul-30 20:33N 39°01' W 009°37'9 9.5
2015-Jul-30 19:33N 39°09' W 009°31'9 9.1
2015-Jul-30 18:33N 39°18' W 009°26'  
2015-Jul-27 19:32N 39°21' W 009°22'0 0.0
2015-Jul-27 18:32N 39°21' W 009°22'0 0.0
2015-Jul-27 17:33N 39°21' W 009°22'0 0.0
2015-Jul-27 16:30N 39°21' W 009°22'0 0.0
2015-Jul-27 15:24N 39°21' W 009°22'0 0.0
2015-Jul-27 14:17N 39°21' W 009°22'0 0.0
2015-Jul-27 13:31N 39°21' W 009°22'0 0.0
2015-Jul-27 12:33N 39°21' W 009°22'0 0.0
2015-Jul-27 11:31N 39°21' W 009°22'0 0.0
2015-Jul-27 10:33N 39°21' W 009°22'0 0.0
2015-Jul-27 08:29N 39°21' W 009°22'0 0.0
2015-Jul-26 03:25N 39°21' W 009°22'4 4.9
2015-Jul-26 02:32N 39°19' W 009°26'8 7.7
2015-Jul-26 01:32N 39°14' W 009°34'7 7.3
2015-Jul-26 00:33N 39°09' W 009°41'7 7.3
2015-Jul-25 23:32N 39°04' W 009°48'  
Track history (hours):
 
Tides and Currents Weather Stations Pressure Air Temp Water Temp Dewpoint Dewpoint Depression Visibility Wind Speed Wind Dir Waves Ship Positions

Dario Filipe

Last reported at 2015-Jul-31 00:26 UTC. Time now 2015-Sep-01 03:59 UTC.
Position N 38°30' W 009°55'.
Warning: this ship's position is 32 days out of date.

Length 24 m.

Type: Fishing. MMSI: 263414640.

Date/timePositionNaut miles runAvg speedWind from/ knotsBaromVisibWave heightAir tempDewpointWater temp
2015-Jul-31 00:26N 38°30' W 009°55'8 9.0
2015-Jul-30 23:34N 38°37' W 009°51'9 8.8
2015-Jul-30 22:33N 38°45' W 009°46'9 8.7
2015-Jul-30 21:33N 38°53' W 009°42'9 9.2
2015-Jul-30 20:33N 39°01' W 009°37'9 9.5
2015-Jul-30 19:33N 39°09' W 009°31'9 9.1
2015-Jul-30 18:33N 39°18' W 009°26'  
2015-Jul-27 19:32N 39°21' W 009°22'0 0.0
2015-Jul-27 18:32N 39°21' W 009°22'0 0.0
2015-Jul-27 17:33N 39°21' W 009°22'0 0.0
2015-Jul-27 16:30N 39°21' W 009°22'0 0.0
2015-Jul-27 15:24N 39°21' W 009°22'0 0.0
2015-Jul-27 14:17N 39°21' W 009°22'0 0.0
2015-Jul-27 13:31N 39°21' W 009°22'0 0.0
2015-Jul-27 12:33N 39°21' W 009°22'0 0.0
2015-Jul-27 11:31N 39°21' W 009°22'0 0.0
2015-Jul-27 10:33N 39°21' W 009°22'0 0.0
2015-Jul-27 08:29N 39°21' W 009°22'0 0.0
2015-Jul-26 03:25N 39°21' W 009°22'4 4.9
2015-Jul-26 02:32N 39°19' W 009°26'8 7.7
2015-Jul-26 01:32N 39°14' W 009°34'7 7.3
2015-Jul-26 00:33N 39°09' W 009°41'7 7.3
2015-Jul-25 23:32N 39°04' W 009°48'  

Dump ship's entire track history